Change the Weather History Date:

Sunday, September 2, 2012

  Actual Average Record
Temperature  
Mean Temperature 68 °F -  
Max Temperature 89 °F 86 °F 99 °F (1988)
Min Temperature 48 °F 48 °F 32 °F (1973)
Cooling Degree Days 4    
Growing Degree Days 18 (Base 50)    
Moisture  
Dew Point 26 °F    
Average Humidity 26    
Maximum Humidity 50    
Minimum Humidity 7    
Precipitation  
Precipitation 0.00 in - - ()
Sea Level Pressure  
Sea Level Pressure 29.99 in    
Wind  
Wind Speed 3 mph (WNW)    
Max Wind Speed 7 mph    
Max Gust Speed -    
Visibility 10 miles    
Events      
Averages and records for this station are not official NWS values.
T = Trace of Precipitation, MM = Missing Value Source: NWS Daily Summary

Daily Weather History Graph

Daily Weather History Graph

Search for Another Location

Airport or City:

Trip Planner

Search our weather history database for the weather conditions in past years. The results will help you decide how hot, cold, wet, or windy it might be!

Date:

Astronomy

Sep. 02, 2012 Rise Set
Actual Time 6:24 AM PDT 7:23 PM PDT
Civil Twilight 5:57 AM PDT 7:50 PM PDT
Nautical Twilight 5:24 AM PDT 8:23 PM PDT
Astronomical Twilight 4:50 AM PDT 8:56 PM PDT
Moon 8:14 PM PDT (9/2) 8:36 AM PDT (9/2)
Length of Visible Light 13h 53m
Length of Day
12h 58m
Waning Gibbous, 95% of the Moon is Illuminated
Sep 2
Waning Gibbous
Sep 8
Last Quarter
Sep 15
New
Sep 22
First Quarter
Sep 29
Full

Hourly Weather History & Observations

Time (PDT) Temp. Dew Point Humidity Pressure Visibility Wind Dir Wind Speed Gust Speed Precip Events Conditions
12:56 AM 55.0 °F 34.0 °F 45% 29.99 in 10.0 mi SW 3.5 mph - N/A   Clear
1:56 AM 55.0 °F 32.0 °F 42% 29.99 in 10.0 mi WSW 3.5 mph - N/A   Clear
2:56 AM 51.1 °F 32.0 °F 48% 29.99 in 10.0 mi SW 3.5 mph - N/A   Clear
3:56 AM 48.0 °F 30.0 °F 50% 29.99 in 10.0 mi Calm Calm - N/A   Clear
4:56 AM 48.0 °F 30.0 °F 50% 30.00 in 10.0 mi Calm Calm - N/A   Clear
5:56 AM 48.9 °F 24.1 °F 38% 30.00 in 10.0 mi SSE 3.5 mph - N/A   Clear
6:56 AM 48.9 °F 26.1 °F 41% 30.02 in 10.0 mi Calm Calm - N/A   Clear
7:56 AM 57.0 °F 27.0 °F 32% 30.03 in 10.0 mi Calm Calm - N/A   Clear
8:56 AM 64.0 °F 28.0 °F 26% 30.04 in 10.0 mi Calm Calm - N/A   Clear
9:56 AM 70.0 °F 23.0 °F 17% 30.04 in 10.0 mi Variable 3.5 mph - N/A   Clear
10:56 AM 73.9 °F 21.9 °F 14% 30.03 in 10.0 mi Variable 3.5 mph - N/A   Clear
11:01 AM 73.4 °F 21.2 °F 14% 30.13 in 10.0 mi Calm Calm - N/A   Clear
11:56 AM 77.0 °F 23.0 °F 13% 30.02 in 10.0 mi Variable 3.5 mph - N/A   Partly Cloudy
12:56 PM 81.0 °F 21.9 °F 11% 30.00 in 10.0 mi SW 4.6 mph - N/A   Partly Cloudy
1:56 PM 84.0 °F 19.9 °F 9% 29.98 in 10.0 mi Calm Calm - N/A   Partly Cloudy
2:56 PM 87.1 °F 21.0 °F 9% 29.96 in 10.0 mi NW 5.8 mph - N/A   Partly Cloudy
3:56 PM 89.1 °F 19.9 °F 8% 29.94 in 10.0 mi Calm Calm - N/A   Partly Cloudy
4:56 PM 89.1 °F 16.0 °F 7% 29.93 in 10.0 mi NNE 4.6 mph - N/A   Clear
5:56 PM 87.1 °F 16.0 °F 7% 29.92 in 10.0 mi North 5.8 mph - N/A   Partly Cloudy
6:56 PM 84.9 °F 21.0 °F 10% 29.91 in 10.0 mi WNW 6.9 mph - N/A   Clear
7:56 PM 75.0 °F 27.0 °F 17% 29.92 in 10.0 mi NW 4.6 mph - N/A   Clear
8:56 PM 66.0 °F 28.9 °F 25% 29.94 in 10.0 mi Calm Calm - N/A   Clear
9:56 PM 64.0 °F 32.0 °F 30% 29.95 in 10.0 mi NW 3.5 mph - N/A   Clear
10:56 PM 57.9 °F 33.1 °F 39% 29.96 in 10.0 mi Variable 6.9 mph - N/A   Clear
11:56 PM 60.1 °F 34.0 °F 38% 29.96 in 10.0 mi WNW 6.9 mph - N/A   Clear